Location: Newark
(40.3500°N, 15.2333°E)
Time: 18:02:12
(UTC+00:00)

Altair - Pass Details

Date: 27 January 2020
Orbit: 1502 x 1682 km, 47.2° (Epoch: 22 February)

Event Time Altitude Azimuth Distance (km) Brightness Sun altitude
Rises 13:12:40 0° 298° (WNW) 4,939 10.2 24.8°
Reaches altitude 10° 13:15:53 10° 296° (WNW) 3,944 9.8 24.4°
Maximum altitude 13:25:53 66° 218° (SW) 1,775 8.7 23.4°
Drops below altitude 10° 13:35:35 10° 138° (SE) 3,832 9.8 22.3°
Sets 13:38:40 0° 136° (SE) 4,792 10.2 21.9°
